#timestamp,LO_Frequency,Hit,StdDev 
1577966415.2,286046984.8,P
1577966435.0,286046985.4,Y
1577966435.9,286046985.4,P
1577966455.8,286046998.3,N
1577966475.6,286046995.0,N
1577966495.4,286046995.1,N
1577966515.3,286046999.0,N
1577966535.1,286046993.3,N
1577966555.8,286046992.6,N
1577966575.7,286046989.6,N
1577966595.5,286046987.4,Y
1577966615.4,286046996.4,P
1577966635.2,286046994.9,P
1577966655.0,286046995.5,P
1577966655.9,286046995.5,Y
1577966675.8,286047000.8,P
1577966695.6,286047005.9,N
1577966715.5,286046999.1,N
1577966735.3,286046995.5,N
1577966755.1,286046999.5,N
1577966775.9,286046993.7,N
1577966795.7,286046997.0,N
1577966815.5,286046999.5,N
1577966835.4,286047002.3,N
1577966855.2,286046998.2,N
1577966875.1,286046998.6,N
1577966876.0,286046998.6,N
1577966895.8,286047000.3,N
1577966915.6,286046998.6,N
1577966935.5,286047003.7,N
1577966955.3,286046999.3,N
1577966975.1,286046992.4,N
1577966995.9,286046992.1,N
1577967015.7,286046993.9,N
1577967035.6,286047000.3,N
1577967055.4,286046998.2,N
1577967075.2,286047004.3,N
1577967095.1,286047001.7,N
1577967096.0,286047001.7,N
1577967115.8,286047003.7,N
1577967135.7,286046999.0,N
1577967155.5,286047000.7,N
1577967175.3,286047001.1,N
1577967195.2,286047000.7,N
1577967215.0,286046993.5,N
1577967215.9,286046993.5,N
1577967235.7,286046988.6,Y
1577967255.6,286046991.4,P
1577967275.4,286046986.2,P
1577967295.3,286046981.3,P
1577967315.1,286046979.3,Y
1577967316.0,286046979.3,P
1577967335.8,286046987.7,N
1577967355.7,286046987.4,N
1577967375.5,286046985.5,Y
1577967395.4,286046986.3,P
1577967415.2,286047004.4,P
1577967435.0,286047004.6,N
1577967435.9,286047004.6,N
1577967455.8,286047006.0,N
1577967475.6,286047000.6,N
1577967495.4,286046998.1,N
1577967515.3,286046998.3,N
1577967535.1,286046995.8,N
1577967555.9,286046992.7,N
1577967575.7,286046995.8,N
1577967595.5,286046993.4,N
1577967615.4,286046987.1,N
1577967635.2,286046992.8,N
1577967655.0,286046991.8,N
1577967655.9,286046991.8,N
1577967675.8,286046995.2,N
1577967695.6,286046994.1,N
1577967715.5,286046992.9,N
1577967735.3,286046991.9,N
1577967755.1,286046993.5,N
1577967775.9,286046995.1,N
1577967795.7,286046989.2,N
1577967815.5,286046989.2,N
1577967835.4,286046989.0,N
1577967855.2,286046993.8,N
1577967875.1,286046995.2,N
1577967876.0,286046995.2,N
1577967895.8,286046993.9,N
1577967915.6,286046995.8,N
1577967935.5,286046997.5,N
1577967955.3,286047000.6,N
1577967975.1,286047001.0,N
1577967995.9,286046996.9,N
1577968015.7,286047002.3,N
1577968035.6,286046997.1,N
1577968055.4,286047001.0,N
1577968075.2,286047004.5,N
1577968095.1,286047011.4,N
1577968096.0,286047011.4,N
1577968115.8,286047011.6,N
1577968135.7,286047013.3,N
1577968155.5,286047015.1,N
1577968175.3,286047017.1,N
1577968195.2,286047020.4,N
1577968215.0,286047024.6,N
1577968215.9,286047024.6,N
1577968235.8,286047024.9,N
1577968255.6,286047026.4,N
1577968275.4,286047022.3,N
1577968295.3,286047020.0,N
1577968315.1,286047017.7,N
1577968335.8,286047016.1,N
1577968355.7,286047017.0,N
1577968375.5,286047016.8,N
1577968395.4,286047017.4,N
1577968415.2,286047019.5,N
1577968435.0,286047021.3,N
1577968436.0,286047021.3,N
1577968455.8,286047022.5,N
1577968475.6,286047023.9,N
1577968495.5,286047023.2,N
1577968515.3,286047023.0,N
1577968535.1,286047020.4,N
1577968555.9,286047016.0,N
1577968575.7,286047011.8,N
1577968595.6,286047011.0,N
1577968615.4,286047013.2,N
1577968635.2,286047010.1,N
1577968655.1,286047010.4,N
1577968656.0,286047010.4,N
1577968675.8,286047009.6,N
1577968695.7,286047008.4,N
1577968715.5,286047010.7,N
1577968735.3,286047010.2,N
1577968755.2,286047011.0,N
1577968775.9,286047009.7,N
1577968795.7,286047008.2,N
1577968815.6,286047006.6,N
1577968835.4,286047005.3,N
1577968855.3,286047006.0,N
1577968875.1,286047007.0,N
1577968876.0,286047007.0,N
1577968895.8,286047008.1,N
1577968915.7,286047006.2,N
1577968935.5,286047003.2,N
1577968955.3,286047001.6,N
1577968975.2,286046998.7,N
1577968995.0,286047001.1,N
1577968995.9,286047001.1,N
1577969015.8,286047000.1,N
1577969035.6,286046998.4,N
1577969055.7,286046999.9,N
1577969075.6,286047004.0,N
1577969095.4,286047001.8,N
1577969115.3,286047000.9,N
1577969135.1,286046999.2,N
1577969155.9,286046993.7,N
1577969175.7,286046989.3,N
1577969195.5,286046983.0,Y
1577969215.4,286046972.7,P
1577969235.2,286046975.3,N
1577969255.0,286046964.8,N
1577969256.0,286046964.8,N
1577969275.8,286046965.0,N
1577969295.6,286046962.5,N
1577969315.5,286046961.5,N
1577969335.3,286046959.9,Y
1577969355.1,286046990.7,P
1577969375.9,286046990.3,N
1577969395.7,286046985.9,N
1577969415.6,286046985.2,N
1577969435.4,286046981.3,N
1577969455.2,286046980.6,N
1577969475.1,286046979.8,Y
1577969476.0,286046979.8,P
1577969495.8,286046995.6,N
1577969515.7,286046995.9,N
1577969535.5,286046994.8,N
1577969555.3,286047002.7,N
1577969575.2,286047008.7,N
1577969595.9,286047011.5,N
1577969615.7,286047017.7,N
1577969635.6,286047021.0,N
1577969655.4,286047024.5,N
1577969675.2,286047025.0,N
1577969695.1,286047025.0,N
1577969696.0,286047025.0,N
1577969715.8,286047023.7,N
1577969735.7,286047027.9,N
1577969755.5,286047028.2,N
1577969775.3,286047033.1,N
1577969795.2,286047038.0,N
1577969815.0,286047033.8,N
1577969815.9,286047033.8,N
1577969835.8,286047035.9,N
1577969855.6,286047036.2,N
1577969875.4,286047038.7,N
1577969895.3,286047044.1,N
1577969915.1,286047047.6,N
1577969935.8,286047043.8,N
1577969955.7,286047043.7,N
1577969975.5,286047042.4,N
1577969995.4,286047041.1,N
